Weather observations for the past three days for
Barter Island, Barter Island LRRS Airport
Imperial (Metric)
Date Time (akdt) Wind (mph) Vis. (mi.) Weather Sky Cond. Temperature (ºF) Relative Humidity Wind Chill (°F) Heat Index (°F) Pressure Precipitation (in)
Air Dwpt 6 hour altimeter (in) sea level (mb) 1 hr 3 hr 6 hr
Max. Min.
07 10:56 W 14 10.00 Overcast OVC007 24.1 18 77% 13 30.17 1023.5
07 09:56 W 12 10.00 Overcast OVC007 23 18 23 21 81% 13 30.16 1023.2
07 08:56 W 13 10.00 Overcast OVC007 21.9 18 85% 11 30.15 1022.9
07 07:56 W 13 10.00 Overcast OVC007 21 18 88% 10 30.14 1022.5
07 06:56 W 12 10.00 Overcast OVC007 21 18 88% 10 30.13 1022.1
07 05:56 W 13 10.00 Overcast OVC009 21 18 88% 10 30.11 1021.6
07 04:56 W 15 10.00 Overcast OVC009 21 18 88% 8 30.1 1021.3
07 03:56 W 15 10.00 Overcast OVC009 21 18 24.1 21 88% 8 30.1 1021.0
07 02:56 W 15 10.00 Overcast OVC009 21 18 88% 8 30.08 1020.5
07 01:56 W 17 10.00 Overcast OVC011 21.9 18 85% 9 30.06 1019.9
07 00:56 W 18 10.00 Overcast OVC013 21.9 19 89% 8 30.05 1019.3
06 23:56 W 18 10.00 Overcast OVC013 23 19.9 88% 10 30.03 1018.8
06 22:56 W 18 10.00 Overcast OVC013 24.1 19.9 84% 11 30.02 1018.4
06 21:56 W 17 10.00 Overcast OVC013 24.1 19.9 26.1 24.1 84% 11 30 1017.9
06 20:56 W 21 10.00 Overcast and Breezy OVC013 24.1 19.9 84% 10 29.98 1017.2
06 19:56 W 23 10.00 Overcast and Breezy OVC013 25 21 85% 11 29.97 1016.7
06 18:56 W 23 10.00 Overcast and Breezy OVC011 25 21 85% 11 29.95 1016.2
06 17:56 W 28 10.00 Overcast and Windy OVC011 25 21 85% 10 29.93 1015.4
06 16:56 W 26 G 33 7.00 Overcast and Windy OVC011 26.1 21 81% 11 29.91 1014.8
06 15:56 W 31 4.00 Light Snow and Windy OVC011 25 19.9 25 23 81% 9 29.9 1014.2
06 14:56 W 29 G 36 4.00 Overcast with Haze and Windy OVC009 25 19.9 81% 9 29.88 1013.6
06 13:56 W 36 1.25 Light Snow Fog/Mist and Windy OVC009 23 19.9 88% 5 29.85 1012.8
06 12:56 W 30 1.75 Unknown Precip Fog/Mist and Windy OVC009 23 19 85% 6 29.84 1012.3
06 11:56 W 33 G 39 3.00 Unknown Precip and Windy OVC009 25 19.9 81% 8 29.82 1011.6
06 10:56 W 31 2.50 Light Snow Fog/Mist and Windy BKN009 OVC043 24.1 19.9 84% 8 29.8 1011.0
06 09:56 W 30 3.00 Blowing Snow Fog/Mist and Windy OVC009 24.1 19.9 24.1 21.9 84% 8 29.79 1010.6
06 08:56 W 29 4.00 Blowing Snow Fog/Mist and Windy OVC009 24.1 21 88% 8 29.77 1010.0
06 07:56 W 28 5.00 Blowing Snow Fog/Mist and Windy OVC009 23 21 92% 7 29.76 1009.6
06 06:56 W 28 4.00 Unknown Precip Fog/Mist and Windy BKN013 OVC019 23 19.9 88% 7 29.75 1009.4
06 05:56 W 25 4.00 Light Snow Fog/Mist and Breezy FEW011 BKN050 OVC065 21.9 19 89% 6 29.74 1009.1
06 04:56 W 25 6.00 Light Snow Fog/Mist and Breezy OVC060 21.9 19 89% 6 29.73 1008.7
06 03:56 W 24 10.00 Overcast and Breezy SCT060 BKN075 OVC095 21.9 19.9 24.1 21.9 92% 6 29.73 1008.5
06 02:56 W 24 2.50 Light Snow Fog/Mist and Breezy BKN034 OVC043 23 21 92% 8 29.72 1008.2
06 01:56 W 23 2.00 Light Snow Fog/Mist and Breezy SCT019 BKN024 OVC028 23 21 92% 8 29.71 1008.0
06 00:56 W 23 2.50 Light Snow Fog/Mist and Breezy SCT024 BKN028 OVC055 23 21 92% 8 29.7 1007.5
05 23:56 W 25 6.00 Unknown Precip Fog/Mist and Breezy BKN055 OVC070 24.1 21 88% 9 29.69 1007.1
05 22:56 W 25 8.00 Overcast and Breezy OVC060 24.1 21 88% 9 29.68 1007.0
05 21:56 W 24 3.00 Light Snow Fog/Mist and Breezy SCT029 BKN037 OVC049 24.1 21.9 28.9 24.1 91% 9 29.68 1007.0
05 20:56 W 24 1.75 Light Snow Fog/Mist and Breezy FEW007 BKN023 OVC045 24.1 21.9 91% 9 29.68 1006.9
05 19:56 W 22 1.00 Light Snow Fog/Mist and Breezy BKN007 OVC020 26.1 24.1 92% 13 29.67 1006.6
05 18:56 W 21 1.00 Light Snow Fog/Mist and Breezy OVC017 27 24.1 89% 14 29.67 1006.4
05 17:56 W 20 1.25 Light Snow Fog/Mist BKN019 OVC026 27 25 92% 14 29.66 1006.2
05 16:56 W 17 0.50 Snow Freezing Fog OVC013 28 25 88% 17 29.65 1006.0
05 15:56 W 7 0.75 Light Snow Fog/Mist OVC015 28.9 26.1 32 27 89% 23 29.64 1005.5 0.01 0.02
05 14:56 W 6 1.00 Light Snow BKN017 BKN023 OVC028 30.9 26.1 82% 26 29.64 1005.6 0.01
05 13:55 NW 3 2.00 Light Snow Fog/Mist SCT013 BKN018 OVC028 28.9 26.1 89% 29.65 1005.7
05 12:51 NW 5 0.75 Light Snow Fog/Mist OVC004 28 26.1 92% 24 29.65 1006.0
05 11:56 Calm 7.00 Overcast OVC004 28 25 88% 29.67 1006.5
05 10:56 N 7 10.00 Overcast OVC004 27 25 92% 20 29.66 1006.4
05 09:56 E 13 10.00 Overcast OVC004 27 24.1 27 24.1 89% 17 29.68 1006.8
05 08:56 NE 17 10.00 Overcast OVC004 26.1 24.1 92% 14 29.69 1007.3
05 07:56 E 22 8.00 Overcast and Breezy OVC004 25 23 92% 11 29.7 1007.6
05 06:56 E 28 0.50 Light Snow Freezing Fog and Windy OVC004 25 23 92% 10 29.71 1007.7
05 05:56 E 26 0.25 Light Snow Freezing Fog and Windy OVC004 25 24.1 96% 10 29.73 1008.6
05 04:56 E 23 2.00 Unknown Precip Fog/Mist and Breezy OVC002 25 23 92% 11 29.77 1009.9
05 03:56 E 23 6.00 Light Snow Fog/Mist and Breezy OVC004 25 23 26.1 25 92% 11 29.8 1010.8
05 02:56 E 25 2.00 Light Snow Fog/Mist and Breezy OVC004 25 24.1 96% 10 29.82 1011.5
05 01:56 E 22 5.00 Light Snow Fog/Mist and Breezy OVC008 26.1 24.1 92% 13 29.85 1012.5
05 00:56 E 22 1.25 Light Snow Fog/Mist and Breezy OVC010 25 24.1 96% 11 29.88 1013.8
04 23:56 E 22 1.75 Light Snow Fog/Mist and Breezy OVC010 26.1 24.1 92% 13 29.91 1014.6
04 22:56 E 21 5.00 Light Snow Fog/Mist and Breezy OVC004 26.1 24.1 92% 13 29.94 1015.8
04 21:56 E 22 8.00 Overcast and Breezy OVC004 26.1 24.1 30.9 26.1 92% 13 29.97 1016.8
04 20:56 E 20 8.00 Overcast OVC004 26.1 24.1 92% 13 30 1017.6
04 19:56 E 22 9.00 Overcast and Breezy OVC008 27 24.1 89% 14 30.02 1018.3
04 18:56 E 18 10.00 Overcast OVC008 28.9 25 85% 17 30.04 1018.9
04 17:56 E 22 10.00 Overcast and Breezy OVC008 28.9 26.1 89% 16 30.05 1019.4
04 16:56 E 18 10.00 Overcast OVC010 30.9 26.1 82% 20 30.07 1020.3
04 15:56 E 16 10.00 Overcast OVC008 30.9 26.1 32 28.9 82% 21 30.09 1020.9
04 14:56 E 16 10.00 Overcast OVC008 30.9 26.1 82% 21 30.11 1021.4
04 13:56 E 16 10.00 Overcast OVC008 32 26.1 79% 22 30.12 1021.8
04 12:56 E 14 10.00 Overcast OVC006 30.9 26.1 82% 21 30.13 1022.1
04 11:56 E 13 10.00 Overcast OVC006 30.9 26.1 82% 22 30.14 1022.4
Date Time (akdt) Wind (mph) Vis. (mi.) Weather Sky Cond. Air Dwpt Max. Min. Relative Humidity Wind Chill (°F) Heat Index (°F) altimeter (in) sea level (mb) 1 hr 3 hr 6 hr
6 hour
Temperature (ºF) Pressure Precipitation (in)